Regional Weather Roundup
Issued by NWS

Home | Current Version | Previous Version | Text Only | Print | Product List | Glossary On
Versions: 1 2 3 4 5 6 7 8 9 10 11 12 13 14 15 16 17 18 19 20 21 22 23 24 25 26 27 28 29 30 31 32 33 34 35 36 37 38 39 40 41 42 43 44 45 46 47 48 49 50
000
ASUS43 KFSD 231602
RWRSD

WEATHER ROUNDUP FOR SOUTH DAKOTA
NATIONAL WEATHER SERVICE SIOUX FALLS SD
1000 AM CST TUE JAN 23 2018

NOTE: "FAIR" INDICATES FEW OR NO CLOUDS BELOW 12,000 FEET WITH NO
SIGNIFICANT WEATHER AND/OR OBSTRUCTIONS TO VISIBILITY.


SDZ001>005-009-010-012>017-231700-
NORTHWEST AND NORTH CENTRAL SOUTH DAKOTA

CITY           SKY/WX    TMP DP  RH WIND       PRES   REMARKS
BUFFALO          N/A     25  18  74 W10       30.04R WCI  15
FAITH            N/A     33  25  72 W17       30.09R WCI  22
MOBRIDGE       PTSUNNY   21  17  84 CALM      30.05R
$$

SDZ012>016-024>037-041>051-057-063-072>074-231700-
SOUTHWEST AND SOUTH CENTRAL SOUTH DAKOTA

CITY           SKY/WX    TMP DP  RH WIND       PRES   REMARKS
RAPID CTY ARPT MOSUNNY   37  19  48 NW14      30.13R
PIERRE         MOSUNNY   25  24  96 W7        30.09R WCI  17
CUSTER         SUNNY     26  13  57 NW12G17   30.08R WCI  16
ELLSWORTH AFB  MOSUNNY   36  20  52 NW12      30.12R
PHILIP         CLOUDY    32  28  85 W9        30.12R WCI  24
PINE RIDGE     MOSUNNY   25  20  81 W8        30.17R WCI  16
SPEARFISH        N/A     30  19  64 W13G18    30.14R WCI  20
WINNER         PTSUNNY   30  25  81 W6        30.11R WCI  24
$$

SDZ004>011-016>023-039-040-231700-
NORTHEAST SOUTH DAKOTA

CITY           SKY/WX    TMP DP  RH WIND       PRES   REMARKS
ABERDEEN       CLOUDY    22  20  92 SW6       30.09R FOG     WCI  14
WATERTOWN      FOG       18  18 100 VRB5      30.07R VSB 3/4 WCI  11
BROOKINGS      CLOUDY    19  18  95 N6        30.09R FOG     WCI  11
SISSETON         N/A     20  18  92 SW5       30.10R WCI  13
$$

SDZ017-020-022-023-036>040-048>070-231700-
SOUTHEAST SOUTH DAKOTA

CITY           SKY/WX    TMP DP  RH WIND       PRES   REMARKS
SIOUX FALLS    CLOUDY    21  20  96 NW7       30.12R WCI  12
HURON          CLOUDY    20  19  96 W5        30.12R FOG     WCI  13
CHAMBERLAIN    PTSUNNY   20  20  98 CALM      30.11R
MITCHELL       CLOUDY    21  19  92 W5        30.14R FOG     WCI  15
YANKTON        CLOUDY    21  19  92 NW8       30.14R WCI  11
$$

ABBREVIATIONS USED IN REMARKS
   TC - TEMPERATURE IN CELSIUS
  WCI - WIND CHILL INDEX
   HX - HEAT INDEX
  VSB - VISIBILITY





USA.gov is the U.S. government's official web portal to all federal, state and local government web resources and services.